STARLINK-32756 (62752 NORAD) Tracking and Keplerian Element Data

This shows tracking and keplerian element data for the satellite.

Feedback or suggestion? Click here.




ElementValue
Catalog62752
NameSTARLINK-32756
Epoch Orbit5106
Epoch Day353.9894858
Epoch Year2025
RAAN244.888
Inclination42.9964
Eccentricity5.03E-05
Argument of Perigee210.0702
Mean Anonmoly150.0121
Mean Motion15.2759187
Decay Rate0.00015286
L11 62752U 25014T 25353.98948580 .00015286 00000+0 56363-3 0 9990
L22 62752 42.9964 244.8880 0000503 210.0702 150.0121 15.27591870 51069



Live tracking and technical data element details for STARLINK-32756 (NORAD 62752). STARLINK-32756 can be tracked NOW for your location showing map with azimuth and elevation plus other details from your city location.







IsCatalogInMostPopularTable: catalog: 62752, numindb: 273
Update: records affected: 1



GetName: 62752 STARLINK-32756

Hit Count: updated at: Thu, 16 Apr 2026 05:39:30 GMT